sat.trackr.live / text

‹ back to catalog

FASTSAT-HSV01 (USA 220)

NORAD 37225 · 2010-062D

PAYLOAD ACTIVE UNKNOWN

§ Identity

Operator
Country
US
Launch date
2010-11-20
Launch site
KODAK
Launch vehicle
Mass (kg)
RCS (m²)

External: N2YO · Heavens-Above · Gunter

§ Orbital elements

Epoch: 2026-09-20T02:59:05.561952Z

Period
97.15 min
Inclination
71.9721°
Eccentricity
0.0018288
Mean motion
14.82216968 rev/d
Perigee alt
609.5 km
Apogee alt
635.1 km
Semi-major
7,000.5 km
B*
3.1683e-5
RAAN
308.5586°
Arg perigee
305.6734°
Mean anomaly
54.2728°
Rev number
12,819

§ Raw data

FASTSAT-HSV01 (USA 220)1 37225U 10062D   26263.12436993  .00000194  00000+0  31683-4 0  99922 37225  71.9721 308.5586 0018288 305.6734  54.2728 14.82216968128194

JSON: /api/v1/satellites/37225 · /tle

For live sub-satellite position, see the globe view (requires WebGL).

§ Visibility from observer

Set your observer location to see the next 7 days of passes ≥ 10°. The values pass through the URL so the page stays shareable.

No JS? Fill the form by hand. The geolocation button needs JavaScript.